Location: Newark
(44.6768°N, 22.5302°E)
Time: 23:50:24
(UTC+00:00)

UKube-1 - Pass Details

Date: 03 July 2022
Orbit: 608 x 615 km, 98.4° (Epoch: 18 August)

Event Time Altitude Azimuth Distance (km) Brightness Sun altitude
Rises 19:25:14 0° 30° (NNE) 2,892 ? -9.8°
Reaches altitude 10° 19:28:09 10° 52° (NE) 1,979 ? -10.2°
Maximum altitude 19:30:56 17° 92° (E) 1,578 ? -10.5°
Enters shadow 19:32:39 14° 120° (ESE) 1,739 ? -10.7°
